FW9081 Weather Reports


time (UTC)temp
C
wind
direction
speed
KPH
gust
KPH
rain 1hr
cm
rain 24hr
cm
rain mn
cm
humidity
%
barometer
mb
20260507210449 17 183 11.3 12.9 0.00 0.00 0.00 72 1014.4
20260507205949 17 185 11.3 12.9 0.00 0.00 0.00 71 1014.6
20260507205450 17 183 11.3 12.9 0.00 0.00 0.00 72 1014.3
20260507204948 17 184 11.3 12.9 0.00 0.00 0.00 72 1014.1
20260507204449 17 184 11.3 12.9 0.00 0.00 0.00 72 1014.3
20260507203948 17 184 11.3 12.9 0.00 0.00 0.00 72 1014.2
20260507203449 17 183 11.3 12.9 0.00 0.00 0.00 72 1014.3
20260507202949 17 185 11.3 12.9 0.00 0.00 0.00 72 1014.1
20260507202448 17 185 11.3 12.9 0.00 0.00 0.00 71 1014.1
20260507201942 17 185 11.3 12.9 0.00 0.00 0.00 72 1014.2
20260507201441 17 185 11.3 12.9 0.00 0.00 0.00 71 1014.4
20260507200942 17 184 11.3 12.9 0.00 0.00 0.00 70 1014.3
20260507200440 17 184 11.3 12.9 0.00 0.00 0.00 70 1014.2
20260507195942 17 184 9.7 12.9 0.00 0.00 0.00 70 1014.1
20260507195441 17 184 11.3 12.9 0.00 0.00 0.00 69 1014.0
20260507194943 18 183 11.3 12.9 0.00 0.00 0.00 69 1014.0
20260507194442 18 182 11.3 12.9 0.00 0.00 0.00 68 1013.9
20260507193943 18 183 11.3 12.9 0.00 0.00 0.00 67 1013.9
20260507193441 18 182 11.3 12.9 0.00 0.00 0.00 67 1013.8
20260507192943 18 182 11.3 11.3 0.00 0.00 0.00 67 1013.8
20260507192440 18 182 11.3 12.9 0.00 0.00 0.00 67 1013.7
20260507191941 18 181 11.3 12.9 0.00 0.00 0.00 67 1013.7
20260507191441 18 182 11.3 12.9 0.00 0.00 0.00 66 1013.6
20260507190942 18 182 11.3 12.9 0.00 0.00 0.00 67 1013.6
20260507190440 18 183 11.3 12.9 0.00 0.00 0.00 66 1013.8
20260507185943 18 184 11.3 12.9 0.00 0.00 0.00 66 1013.7
20260507185441 18 184 11.3 12.9 0.00 0.00 0.00 67 1013.8
20260507184942 18 185 11.3 12.9 0.00 0.00 0.00 66 1014.0
20260507184440 18 183 11.3 12.9 0.00 0.00 0.00 67 1013.6
20260507183943 18 183 11.3 12.9 0.00 0.00 0.00 67 1013.7
20260507183432 18 184 11.3 12.9 0.00 0.00 0.00 66 1013.7
20260507182933 18 183 11.3 14.5 0.00 0.00 0.00 66 1013.9
20260507182434 18 183 11.3 16.1 0.00 0.00 0.00 65 1013.6
20260507181934 19 183 11.3 16.1 0.00 0.00 0.00 64 1013.7
20260507181433 19 183 11.3 12.9 0.00 0.00 0.00 65 1013.7
20260507180934 19 184 11.3 12.9 0.00 0.00 0.00 65 1013.4
20260507180432 19 185 12.9 12.9 0.00 0.00 0.00 65 1013.6
20260507175933 19 182 11.3 12.9 0.00 0.00 0.00 65 1013.6
20260507175432 19 183 11.3 12.9 0.00 0.00 0.00 65 1013.6
20260507174933 19 183 11.3 12.9 0.00 0.00 0.00 65 1013.4
20260507174434 19 184 11.3 12.9 0.00 0.00 0.00 65 1013.3
20260507173934 19 183 11.3 12.9 0.00 0.00 0.00 65 1013.2
20260507173432 20 183 11.3 12.9 0.00 0.00 0.00 65 1013.1
20260507172935 20 184 11.3 12.9 0.00 0.00 0.00 65 1013.1
20260507172433 20 185 11.3 12.9 0.00 0.00 0.00 64 1013.0
20260507171933 20 183 11.3 12.9 0.00 0.00 0.00 64 1012.9
20260507171433 20 184 11.3 12.9 0.00 0.00 0.00 64 1013.0
20260507170934 20 185 11.3 12.9 0.00 0.00 0.00 63 1012.9
20260507170433 20 183 11.3 12.9 0.00 0.00 0.00 61 1012.9
20260507165934 21 183 11.3 12.9 0.00 0.00 0.00 60 1012.7
20260507165433 21 183 11.3 12.9 0.00 0.00 0.00 61 1012.9
20260507164935 21 184 11.3 12.9 0.00 0.00 0.00 60 1012.8
20260507164432 21 183 11.3 12.9 0.00 0.00 0.00 60 1012.7
20260507163933 21 183 11.3 12.9 0.00 0.00 0.00 59 1012.4
20260507163432 21 181 11.3 12.9 0.00 0.00 0.00 60 1012.7
20260507162933 21 183 11.3 12.9 0.00 0.00 0.00 60 1012.6
20260507162434 21 183 11.3 12.9 0.00 0.00 0.00 59 1012.6
20260507161933 21 181 11.3 12.9 0.00 0.00 0.00 60 1012.6
20260507161433 21 183 12.9 12.9 0.00 0.00 0.00 60 1012.6
20260507160935 21 182 11.3 12.9 0.00 0.00 0.00 60 1012.6
20260507160432 21 183 11.3 14.5 0.00 0.00 0.00 59 1012.7
20260507155933 21 184 11.3 14.5 0.00 0.00 0.00 58 1012.8
20260507155432 21 182 11.3 14.5 0.00 0.00 0.00 58 1012.5
20260507154933 21 183 11.3 14.5 0.00 0.00 0.00 57 1012.5
20260507154436 21 182 11.3 14.5 0.00 0.00 0.00 57 1012.4
20260507153933 21 182 11.3 12.9 0.00 0.00 0.00 56 1012.6
20260507153432 21 183 11.3 12.9 0.00 0.00 0.00 58 1012.5
20260507152934 21 181 11.3 14.5 0.00 0.00 0.00 57 1012.5
20260507152433 22 183 11.3 14.5 0.00 0.00 0.00 56 1012.8
20260507151933 22 183 9.7 14.5 0.00 0.00 0.00 56 1012.8
20260507151432 22 183 11.3 14.5 0.00 0.00 0.00 57 1012.6
20260507150934 22 182 11.3 16.1 0.00 0.00 0.00 58 1012.6
20260507150434 21 183 11.3 16.1 0.00 0.00 0.00 56 1012.8
20260507145934 22 180 11.3 16.1 0.00 0.00 0.00 57 1012.5
20260507145433 22 183 11.3 14.5 0.00 0.00 0.00 56 1012.6
20260507144935 22 181 9.7 14.5 0.00 0.00 0.00 54 1012.7
20260507144433 22 181 12.9 14.5 0.00 0.00 0.00 55 1012.8
20260507143934 22 182 11.3 14.5 0.00 0.00 0.00 54 1012.6
20260507143433 22 176 9.7 14.5 0.00 0.00 0.00 54 1012.7
20260507142933 22 181 11.3 14.5 0.00 0.00 0.00 55 1012.8
20260507142434 22 180 11.3 14.5 0.00 0.00 0.00 54 1012.9
20260507141934 22 181 11.3 14.5 0.00 0.00 0.00 55 1012.9
20260507141433 21 182 9.7 14.5 0.00 0.00 0.00 56 1013.0
20260507140935 21 182 11.3 14.5 0.00 0.00 0.00 55 1012.9
20260507140432 21 181 11.3 14.5 0.00 0.00 0.00 54 1013.2
20260507135933 21 182 11.3 12.9 0.00 0.00 0.00 55 1013.1
20260507135432 21 183 12.9 14.5 0.00 0.00 0.00 54 1012.9
20260507134934 22 182 12.9 14.5 0.00 0.00 0.00 54 1013.1
20260507134434 22 182 11.3 14.5 0.00 0.00 0.00 53 1013.0
20260507133933 21 183 12.9 14.5 0.00 0.00 0.00 53 1013.0
20260507133432 22 182 12.9 14.5 0.00 0.00 0.00 54 1013.0
20260507132935 22 180 11.3 14.5 0.00 0.00 0.00 53 1013.0
20260507132432 22 183 11.3 14.5 0.00 0.00 0.00 52 1013.1
20260507131934 22 183 11.3 12.9 0.00 0.00 0.00 52 1013.0
20260507131432 22 183 11.3 12.9 0.00 0.00 0.00 52 1013.1
20260507130934 22 181 9.7 12.9 0.00 0.00 0.00 52 1013.1
20260507130434 22 181 11.3 12.9 0.00 0.00 0.00 52 1013.0
20260507125934 22 181 9.7 14.5 0.00 0.00 0.00 50 1013.1
20260507125432 22 182 11.3 14.5 0.00 0.00 0.00 51 1013.2
20260507124935 22 180 9.7 12.9 0.00 0.00 0.00 50 1013.4
20260507124432 22 181 9.7 12.9 0.00 0.00 0.00 49 1013.2
20260507123934 22 182 11.3 12.9 0.00 0.00 0.00 49 1013.2
20260507123432 22 184 12.9 12.9 0.00 0.00 0.00 48 1013.5
20260507122934 22 183 11.3 12.9 0.00 0.00 0.00 50 1013.4
20260507122434 22 182 9.7 14.5 0.00 0.00 0.00 49 1013.3
20260507121934 22 182 11.3 14.5 0.00 0.00 0.00 49 1013.5
20260507121432 21 184 11.3 12.9 0.00 0.00 0.00 50 1013.6
20260507120935 21 184 9.7 12.9 0.00 0.00 0.00 50 1013.7
20260507120432 21 186 9.7 12.9 0.00 0.00 0.00 49 1013.4
20260507115933 21 183 12.9 12.9 0.00 0.00 0.00 51 1013.7
20260507115433 21 183 11.3 12.9 0.00 0.00 0.00 50 1013.6
20260507114934 21 182 11.3 14.5 0.00 0.00 0.00 50 1013.7
20260507114434 21 182 9.7 14.5 0.00 0.00 0.00 51 1013.7
20260507113933 21 184 12.9 14.5 0.00 0.00 0.00 52 1013.6
20260507113434 21 184 9.7 12.9 0.00 0.00 0.00 48 1013.4
20260507112935 21 182 11.3 12.9 0.00 0.00 0.00 49 1013.7
20260507112432 21 182 11.3 14.5 0.00 0.00 0.00 49 1013.5
20260507111933 21 183 9.7 14.5 0.00 0.00 0.00 48 1013.6
20260507111432 21 182 11.3 14.5 0.00 0.00 0.00 49 1013.7
20260507110934 22 182 11.3 17.7 0.00 0.00 0.00 48 1013.7
20260507110434 21 181 11.3 17.7 0.00 0.00 0.00 47 1013.8
20260507105934 21 189 12.9 14.5 0.00 0.00 0.00 47 1013.8
20260507105433 21 182 12.9 16.1 0.00 0.00 0.00 50 1013.9
20260507104935 21 183 11.3 16.1 0.00 0.00 0.00 51 1013.9
20260507104432 21 183 9.7 12.9 0.00 0.00 0.00 54 1014.1
20260507103934 20 188 11.3 12.9 0.00 0.00 0.00 54 1014.2
20260507103433 20 185 11.3 12.9 0.00 0.00 0.00 53 1013.9
20260507102934 21 184 11.3 12.9 0.00 0.00 0.00 54 1013.9
20260507102434 20 184 11.3 14.5 0.00 0.00 0.00 52 1014.1
20260507101934 20 183 11.3 14.5 0.00 0.00 0.00 52 1014.0
20260507101432 20 181 11.3 17.7 0.00 0.00 0.00 52 1014.1
20260507100935 20 186 12.9 17.7 0.00 0.00 0.00 51 1014.1
20260507100432 20 185 9.7 14.5 0.00 0.00 0.00 52 1014.1
20260507095934 21 184 12.9 14.5 0.00 0.00 0.00 49 1014.1
20260507095432 21 183 11.3 16.1 0.00 0.00 0.00 49 1014.3
20260507094934 21 183 9.7 16.1 0.00 0.00 0.00 48 1014.1
20260507094434 21 182 11.3 14.5 0.00 0.00 0.00 51 1014.3
20260507093933 21 184 9.7 12.9 0.00 0.00 0.00 52 1014.3
20260507093432 21 182 11.3 12.9 0.00 0.00 0.00 52 1014.3
20260507092935 21 183 12.9 14.5 0.00 0.00 0.00 51 1014.3
20260507092432 21 183 11.3 14.5 0.00 0.00 0.00 52 1014.4
20260507091933 21 183 11.3 14.5 0.00 0.00 0.00 51 1014.5
20260507091432 20 192 9.7 16.1 0.00 0.00 0.00 51 1014.3
20260507090934 20 193 4.8 16.1 0.00 0.00 0.00 51 1014.3
20260507090433 20 182 14.5 17.7 0.00 0.00 0.00 52 1014.3
20260507085933 20 183 14.5 17.7 0.00 0.00 0.00 54 1014.3
20260507085432 20 183 12.9 16.1 0.00 0.00 0.00 55 1014.3
20260507084935 19 198 9.7 17.7 0.00 0.00 0.00 55 1014.3
20260507084433 19 186 11.3 17.7 0.00 0.00 0.00 61 1014.4
20260507083934 19 186 11.3 17.7 0.00 0.00 0.00 60 1014.2
20260507083432 19 186 12.9 17.7 0.00 0.00 0.00 59 1014.4
20260507082934 18 180 14.5 16.1 0.00 0.00 0.00 60 1014.1
20260507082433 18 187 11.3 17.7 0.00 0.00 0.00 62 1014.3
20260507081936 18 188 12.9 17.7 0.00 0.00 0.00 61 1014.3
20260507081432 18 183 8.0 16.1 0.00 0.00 0.00 64 1014.3
20260507080935 18 172 11.3 16.1 0.00 0.00 0.00 65 1014.4
20260507080433 17 180 11.3 14.5 0.00 0.00 0.00 65 1014.5
20260507075934 17 187 11.3 14.5 0.00 0.00 0.00 65 1014.4
20260507075432 17 182 9.7 16.1 0.00 0.00 0.00 65 1014.2
20260507074934 17 184 12.9 16.1 0.00 0.00 0.00 64 1014.4
20260507074432 17 180 9.7 14.5 0.00 0.00 0.00 63 1014.4
20260507073935 17 194 8.0 16.1 0.00 0.00 0.00 64 1014.5
20260507073433 17 195 9.7 16.1 0.00 0.00 0.00 64 1014.2
20260507072934 17 186 12.9 16.1 0.00 0.00 0.00 63 1014.3
20260507072433 17 187 11.3 14.5 0.00 0.00 0.00 63 1014.2
20260507071935 17 180 8.0 17.7 0.00 0.00 0.00 63 1014.1
20260507071432 17 181 12.9 17.7 0.00 0.00 0.00 63 1014.3
20260507070934 17 183 11.3 17.7 0.00 0.00 0.00 63 1014.4
20260507070432 17 192 14.5 17.7 0.00 0.00 0.00 64 1014.1
20260507065934 17 180 12.9 16.1 0.00 0.00 0.00 64 1014.2
20260507065436 17 180 11.3 14.5 0.00 0.00 0.00 63 1014.2
20260507064933 17 185 11.3 14.5 0.00 0.00 0.00 64 1014.2
20260507064432 17 184 9.7 14.5 0.00 0.00 0.00 63 1014.1
20260507063935 17 187 12.9 14.5 0.00 0.00 0.00 64 1014.1
20260507063433 17 190 11.3 14.5 0.00 0.00 0.00 64 1014.1
20260507062932 17 186 11.3 12.9 0.00 0.00 0.00 65 1014.0
20260507062434 17 187 12.9 12.9 0.00 0.00 0.00 65 1014.0
20260507061933 17 191 11.3 12.9 0.00 0.00 0.00 66 1014.1
20260507061435 17 185 11.3 14.5 0.00 0.00 0.00 66 1013.8
20260507060933 17 189 11.3 14.5 0.00 0.00 0.00 66 1014.0
20260507060434 17 186 11.3 12.9 0.00 0.00 0.00 67 1013.7
20260507055934 17 184 11.3 14.5 0.00 0.00 0.00 67 1013.7
20260507055435 17 190 11.3 14.5 0.00 0.00 0.00 67 1013.7
20260507054932 17 180 9.7 14.5 0.00 0.00 0.00 67 1013.8
20260507054434 17 183 9.7 12.9 0.00 0.00 0.00 67 1013.7
20260507053933 17 187 9.7 14.5 0.00 0.00 0.00 67 1013.6
20260507053435 17 189 8.0 14.5 0.00 0.00 0.00 68 1013.5
20260507052933 17 184 9.7 14.5 0.00 0.00 0.00 70 1013.5
20260507052433 17 176 9.7 17.7 0.00 0.00 0.00 70 1013.4
20260507051934 17 188 11.3 17.7 0.00 0.00 0.00 71 1013.6
20260507051434 17 180 12.9 16.1 0.00 0.00 0.00 72 1013.5
20260507050933 17 181 9.7 16.1 0.00 0.00 0.00 75 1013.5
20260507050436 17 187 12.9 16.1 0.00 0.00 0.00 77 1013.3
20260507045933 17 186 11.3 17.7 0.00 0.00 0.00 77 1013.3
20260507045434 17 178 12.9 17.7 0.00 0.00 0.00 77 1013.3
20260507044933 17 186 16.1 17.7 0.00 0.00 0.00 77 1013.0
20260507044434 17 187 12.9 14.5 0.00 0.00 0.00 77 1013.1
20260507043934 17 173 11.3 14.5 0.00 0.00 0.00 77 1013.1
20260507043433 17 201 11.3 14.5 0.00 0.00 0.00 77 1013.2
20260507042932 17 197 6.4 12.9 0.00 0.00 0.00 78 1013.1
20260507042435 17 183 11.3 12.9 0.00 0.00 0.00 77 1013.0
20260507041932 17 186 11.3 12.9 0.00 0.00 0.00 77 1013.0
20260507041434 17 186 11.3 12.9 0.00 0.00 0.00 77 1013.0
20260507040932 17 183 11.3 14.5 0.00 0.00 0.00 77 1012.8
20260507040434 17 187 11.3 14.5 0.00 0.00 0.00 77 1012.7
20260507035932 17 192 9.7 12.9 0.00 0.00 0.00 77 1012.6
20260507035434 17 183 11.3 12.9 0.00 0.00 0.00 76 1012.4
20260507034933 17 184 11.3 12.9 0.00 0.00 0.00 75 1012.5
20260507034435 17 184 11.3 12.9 0.00 0.00 0.00 75 1012.7
20260507033932 17 184 11.3 11.3 0.00 0.00 0.00 74 1012.4
20260507033434 17 183 11.3 12.9 0.00 0.00 0.00 74 1012.6
20260507032933 17 184 11.3 12.9 0.00 0.00 0.00 73 1012.5
20260507032433 17 185 11.3 12.9 0.00 0.00 0.00 73 1012.5
20260507031934 17 183 11.3 12.9 0.00 0.00 0.00 72 1012.5
20260507031434 17 184 11.3 12.9 0.00 0.00 0.00 72 1012.7
20260507030932 17 184 9.7 12.9 0.00 0.00 0.00 72 1012.3
20260507030436 17 184 11.3 12.9 0.00 0.00 0.00 71 1012.5
20260507025935 17 183 11.3 12.9 0.00 0.00 0.00 71 1012.4
20260507025434 17 183 11.3 12.9 0.00 0.00 0.00 71 1012.1
20260507024932 17 183 11.3 12.9 0.00 0.00 0.00 71 1012.2
20260507024434 17 185 11.3 12.9 0.00 0.00 0.00 71 1012.2
20260507023934 17 184 11.3 12.9 0.00 0.00 0.00 71 1012.0
20260507023434 17 184 11.3 12.9 0.00 0.00 0.00 70 1012.1
20260507022933 17 186 11.3 12.9 0.00 0.00 0.00 70 1012.0
20260507022436 17 184 11.3 12.9 0.00 0.00 0.00 70 1012.0
20260507021933 17 183 11.3 12.9 0.00 0.00 0.00 70 1011.9
20260507021434 17 183 11.3 11.3 0.00 0.00 0.00 70 1011.9
20260507020933 17 182 11.3 12.9 0.00 0.00 0.00 70 1011.7
20260507020434 17 184 11.3 12.9 0.00 0.00 0.00 70 1011.9
20260507015934 17 185 11.3 12.9 0.00 0.00 0.00 69 1011.8
20260507015434 17 183 11.3 12.9 0.00 0.00 0.00 69 1011.6
20260507014932 17 184 9.7 12.9 0.00 0.00 0.00 69 1011.7
20260507014435 17 185 11.3 12.9 0.00 0.00 0.00 69 1011.6
20260507013933 17 182 11.3 12.9 0.00 0.00 0.00 69 1011.6
20260507013434 17 183 11.3 12.9 0.00 0.00 0.00 69 1011.6
20260507012933 17 184 11.3 12.9 0.00 0.00 0.00 69 1011.5
20260507012434 17 184 11.3 12.9 0.00 0.00 0.00 69 1011.7
20260507011934 18 184 11.3 12.9 0.00 0.00 0.00 68 1011.6
20260507011434 18 183 11.3 12.9 0.00 0.00 0.00 67 1011.6
20260507010933 18 183 11.3 12.9 0.00 0.00 0.00 67 1011.6
20260507010435 18 183 11.3 12.9 0.00 0.00 0.00 66 1011.6
20260507005933 18 183 11.3 12.9 0.00 0.00 0.00 66 1011.4
20260507005434 18 183 11.3 12.9 0.00 0.00 0.00 65 1011.4
20260507004932 18 183 11.3 11.3 0.00 0.00 0.00 65 1011.2
20260507004434 18 183 9.7 11.3 0.00 0.00 0.00 65 1011.3
20260507003934 18 183 9.7 11.3 0.00 0.00 0.00 64 1011.4
20260507003436 18 183 11.3 11.3 0.00 0.00 0.00 64 1011.1
20260507002933 19 182 9.7 12.9 0.00 0.00 0.00 64 1011.2
20260507002436 19 181 9.7 12.9 0.00 0.00 0.00 63 1011.2
20260507001933 19 183 11.3 12.9 0.00 0.00 0.00 63 1011.2
20260507001434 19 183 11.3 12.9 0.00 0.00 0.00 63 1011.3
20260507000933 19 183 11.3 12.9 0.00 0.00 0.00 62 1011.5
20260507000435 19 184 11.3 12.9 0.00 0.00 0.00 61 1011.4
20260506235935 19 182 11.3 12.9 0.00 0.00 0.00 61 1011.4
20260506235434 20 183 11.3 12.9 0.00 0.00 0.00 60 1011.7
20260506234933 20 183 11.3 12.9 0.00 0.00 0.00 60 1011.4
20260506234435 20 183 11.3 12.9 0.00 0.00 0.00 59 1011.1
20260506233934 20 183 11.3 12.9 0.00 0.00 0.00 59 1011.4
20260506233434 20 182 11.3 12.9 0.00 0.00 0.00 58 1011.3
20260506232932 20 184 11.3 14.5 0.00 0.00 0.00 57 1011.1
20260506232435 20 182 11.3 14.5 0.00 0.00 0.00 56 1011.1
20260506231933 20 182 11.3 14.5 0.00 0.00 0.00 56 1011.0
20260506231434 20 183 11.3 16.1 0.00 0.00 0.00 55 1011.1
20260506230933 20 185 12.9 16.1 0.00 0.00 0.00 55 1010.9
20260506230434 21 185 11.3 16.1 0.00 0.00 0.00 54 1010.8
20260506225934 21 183 11.3 14.5 0.00 0.00 0.00 54 1010.9
20260506225433 21 182 12.9 14.5 0.00 0.00 0.00 53 1010.7
20260506224933 21 182 11.3 14.5 0.00 0.00 0.00 52 1010.7
20260506224435 21 185 11.3 14.5 0.00 0.00 0.00 52 1010.6
20260506223933 21 185 12.9 14.5 0.00 0.00 0.00 52 1010.8
20260506223434 21 181 12.9 14.5 0.00 0.00 0.00 51 1010.5
20260506222933 21 180 11.3 14.5 0.00 0.00 0.00 51 1010.6
20260506222434 21 183 14.5 14.5 0.00 0.00 0.00 51 1010.7
20260506221934 21 184 11.3 14.5 0.00 0.00 0.00 51 1010.4
20260506221434 21 183 12.9 14.5 0.00 0.00 0.00 50 1010.5
20260506220933 21 180 9.7 14.5 0.00 0.00 0.00 50 1010.7
20260506220445 21 182 12.9 14.5 0.00 0.00 0.00 50 1010.4
20260506215933 21 180 11.3 14.5 0.00 0.00 0.00 50 1010.6
20260506215434 21 181 11.3 14.5 0.00 0.00 0.00 50 1010.5
20260506214936 21 183 11.3 14.5 0.00 0.00 0.00 50 1010.5
20260506214439 22 182 11.3 14.5 0.00 0.00 0.00 49 1010.3
20260506213936 22 180 9.7 14.5 0.00 0.00 0.00 49 1010.4
20260506213438 22 182 11.3 14.5 0.00 0.00 0.00 48 1010.3
20260506212937 22 181 11.3 14.5 0.00 0.00 0.00 48 1010.2
20260506212438 22 182 9.7 16.1 0.00 0.00 0.00 48 1010.3
20260506211938 22 184 12.9 16.1 0.00 0.00 0.00 48 1010.1
20260506211438 22 183 11.3 14.5 0.00 0.00 0.00 48 1009.9
20260506210937 22 183 12.9 14.5 0.00 0.00 0.00 48 1009.9